Weather History for Black River Falls, WI

Change the Weather History Date:

Monday, January 14, 2013

  Actual Average (KLSE) Record (KLSE)
Temperature  
Mean Temperature 8 °F 17 °F  
Max Temperature 21 °F 26 °F 47 °F (1914)
Min Temperature -4 °F 9 °F -27 °F (1965)
Degree Days  
Heating Degree Days 56 48  
Month to date heating degree days 668  
Since 1 July heating degree days 3512  
Cooling Degree Days 0 0  
Month to date cooling degree days 0  
Year to date cooling degree days 0  
Moisture  
Dew Point 3 °F    
Average Humidity 78    
Maximum Humidity 92    
Minimum Humidity 58    
Precipitation  
Precipitation 0.00 in 0.03 in 0.93 in (1930)
Month to date precipitation 0.48  
Year to date precipitation 0.48  
Snow  
Snow 0.00 in 0.30 in 10.90 in (1930)
Month to date snowfall 4.2  
Since 1 July snowfall 19.8  
Snow Depth -    
Sea Level Pressure  
Sea Level Pressure 30.35 in    
Wind  
Wind Speed 2 mph (SW)    
Max Wind Speed 12 mph    
Max Gust Speed 17 mph    
Visibility 10 miles    
Events Snow    
T = Trace of Precipitation, MM = Missing Value Source: NWS Daily Summary

Daily Weather History Graph

Daily Weather History Graph

Search for Another Location

Airport:

Trip Planner

Search our weather history database for the weather conditions in past years. The results will help you decide how hot, cold, wet, or windy it might be!

Date:

Astronomy

Jan. 14, 2013 Rise Set
Actual Time 7:36 AM CST 4:49 PM CST
Civil Twilight 7:03 AM CST 5:21 PM CST
Nautical Twilight 6:27 AM CST 5:57 PM CST
Astronomical Twilight 5:53 AM CST 6:32 PM CST
Moon 9:00 AM CST (1/14) 8:45 PM CST (1/14)
Length of Visible Light 10h 18m
Length of Day
9h 13m
Waxing Crescent, 11% of the Moon is Illuminated
Jan 14
Waxing Crescent
Jan 18
First Quarter
Jan 26
Full
Feb 3
Last Quarter
Feb 10
New

Hourly Weather History & Observations

Time (CST) Temp. Windchill Dew Point Humidity Pressure Visibility Wind Dir Wind Speed Gust Speed Precip Events Conditions
12:35 AM 3.2 °F - 1.4 °F 92% 30.23 in 10.0 mi Calm Calm - N/A   Clear
1:15 AM 1.4 °F - -2.2 °F 85% 30.23 in 10.0 mi Calm Calm - N/A   Clear
1:35 AM 1.4 °F - -4.0 °F 78% 30.24 in 10.0 mi Calm Calm - N/A   Clear
2:35 AM -0.4 °F - -4.0 °F 85% 30.26 in 10.0 mi Calm Calm - N/A   Clear
2:55 AM -0.4 °F - -4.0 °F 85% 30.27 in 10.0 mi Calm Calm - N/A   Clear
3:15 AM -0.4 °F - -5.8 °F 78% 30.28 in 10.0 mi Calm Calm - N/A   Clear
3:35 AM -0.4 °F - -4.0 °F 85% 30.29 in 10.0 mi Calm Calm - N/A   Clear
4:15 AM 1.4 °F -8.3 °F -4.0 °F 78% 30.30 in 10.0 mi SSW 4.6 mph - N/A   Clear
4:35 AM 1.4 °F -6.2 °F -2.2 °F 85% 30.30 in 10.0 mi South 3.5 mph - N/A   Clear
4:55 AM 1.4 °F - -2.2 °F 85% 30.29 in 10.0 mi Calm Calm - N/A   Clear
5:15 AM -0.4 °F -8.3 °F -5.8 °F 78% 30.29 in 10.0 mi SW 3.5 mph - N/A   Clear
5:35 AM -2.2 °F -10.4 °F -5.8 °F 85% 30.30 in 10.0 mi SSW 3.5 mph - N/A   Clear
5:55 AM -4.0 °F -12.4 °F -5.8 °F 92% 30.31 in 10.0 mi South 3.5 mph - N/A   Clear
6:15 AM -0.4 °F - -5.8 °F 78% 30.33 in 10.0 mi Calm Calm - N/A   Clear
6:35 AM -0.4 °F -10.4 °F -5.8 °F 78% 30.33 in 10.0 mi SSW 4.6 mph - N/A   Clear
6:55 AM 1.4 °F -6.2 °F -2.2 °F 85% 30.35 in 10.0 mi SSW 3.5 mph - N/A   Clear
7:15 AM 1.4 °F -6.2 °F -4.0 °F 78% 30.36 in 10.0 mi South 3.5 mph - N/A   Clear
7:35 AM -0.4 °F -8.3 °F -4.0 °F 85% 30.37 in 10.0 mi South 3.5 mph - N/A   Clear
7:55 AM -0.4 °F -8.3 °F -4.0 °F 85% 30.37 in 10.0 mi South 3.5 mph - N/A   Clear
8:15 AM 1.4 °F -6.2 °F -2.2 °F 85% 30.38 in 10.0 mi South 3.5 mph - N/A   Clear
8:35 AM 5.0 °F - 1.4 °F 85% 30.38 in 10.0 mi Calm Calm - N/A   Clear
8:55 AM 6.8 °F -0.1 °F 3.2 °F 85% 30.38 in 10.0 mi SSW 3.5 mph - N/A   Clear
9:15 AM 8.6 °F 0.1 °F 5.0 °F 85% 30.39 in 10.0 mi SSW 4.6 mph - N/A   Clear
9:35 AM 10.4 °F 0.8 °F 5.0 °F 79% 30.39 in 10.0 mi SW 5.8 mph - N/A   Clear
9:55 AM 12.2 °F 4.3 °F 5.0 °F 73% 30.38 in 10.0 mi SW 4.6 mph - N/A   Clear
10:15 AM 12.2 °F 4.3 °F 6.8 °F 79% 30.38 in 10.0 mi SW 4.6 mph - N/A   Clear
10:35 AM 14.0 °F 6.5 °F 6.8 °F 73% 30.39 in 10.0 mi SW 4.6 mph - N/A   Clear
10:55 AM 14.0 °F 5.1 °F 6.8 °F 73% 30.38 in 10.0 mi SW 5.8 mph - N/A   Scattered Clouds
11:15 AM 15.8 °F 10.2 °F 6.8 °F 68% 30.38 in 10.0 mi WSW 3.5 mph - N/A   Mostly Cloudy
11:35 AM 17.6 °F 9.3 °F 8.6 °F 68% 30.37 in 10.0 mi WSW 5.8 mph - N/A Snow Light Snow
11:55 AM 17.6 °F 8.2 °F 8.6 °F 68% 30.36 in 10.0 mi West 6.9 mph - N/A Snow Light Snow
12:15 PM 19.4 °F 12.8 °F 8.6 °F 63% 30.37 in 10.0 mi WSW 4.6 mph - N/A   Overcast
12:35 PM 17.6 °F 7.3 °F 8.6 °F 68% 30.36 in 10.0 mi West 8.1 mph 16.1 mph N/A   Overcast
12:55 PM 19.4 °F 8.6 °F 8.6 °F 63% 30.36 in 10.0 mi WSW 9.2 mph - N/A   Overcast
1:15 PM 19.4 °F 7.9 °F 8.6 °F 63% 30.36 in 10.0 mi WSW 10.4 mph 17.3 mph N/A   Overcast
2:15 PM 19.4 °F 7.2 °F 8.6 °F 63% 30.36 in 10.0 mi WSW 11.5 mph - N/A   Mostly Cloudy
2:35 PM 19.4 °F 8.6 °F 8.6 °F 63% 30.36 in 10.0 mi West 9.2 mph - N/A   Mostly Cloudy
2:55 PM 21.2 °F 11.7 °F 10.4 °F 63% 30.36 in 10.0 mi West 8.1 mph - N/A   Overcast
3:15 PM 19.4 °F 7.9 °F 10.4 °F 68% 30.36 in 10.0 mi West 10.4 mph - N/A   Overcast
3:35 PM 21.2 °F 11.7 °F 8.6 °F 58% 30.36 in 10.0 mi WSW 8.1 mph - N/A   Overcast
3:55 PM 21.2 °F 13.6 °F 10.4 °F 63% 30.36 in 10.0 mi West 5.8 mph - N/A   Overcast
4:15 PM 19.4 °F 10.4 °F 10.4 °F 68% 30.36 in 10.0 mi West 6.9 mph - N/A   Overcast
4:35 PM 19.4 °F 11.5 °F 10.4 °F 68% 30.36 in 10.0 mi West 5.8 mph - N/A   Overcast
4:55 PM 19.4 °F - 10.4 °F 68% 30.36 in 10.0 mi Calm Calm - N/A   Overcast
5:15 PM 19.4 °F 12.8 °F 10.4 °F 68% 30.36 in 10.0 mi WNW 4.6 mph - N/A   Overcast
5:35 PM 19.4 °F 14.3 °F 10.4 °F 68% 30.36 in 10.0 mi NW 3.5 mph - N/A   Overcast
5:55 PM 19.4 °F 14.3 °F 10.4 °F 68% 30.36 in 10.0 mi WNW 3.5 mph - N/A Snow Light Snow
6:15 PM 17.6 °F 12.3 °F 10.4 °F 73% 30.36 in 10.0 mi West 3.5 mph - N/A   Mostly Cloudy
6:35 PM 14.0 °F - 10.4 °F 86% 30.37 in 10.0 mi Calm Calm - N/A   Scattered Clouds
6:55 PM 12.2 °F - 8.6 °F 85% 30.37 in 10.0 mi Calm Calm - N/A   Clear
7:15 PM 10.4 °F - 6.8 °F 85% 30.36 in 10.0 mi Calm Calm - N/A   Clear
7:35 PM 8.6 °F - 5.0 °F 85% 30.36 in 10.0 mi Calm Calm - N/A   Clear
7:55 PM 6.8 °F - 3.2 °F 85% 30.36 in 10.0 mi Calm Calm - N/A   Clear
8:15 PM 5.0 °F - 3.2 °F 92% 30.36 in 10.0 mi Calm Calm - N/A   Clear
8:35 PM 5.0 °F - 1.4 °F 85% 30.36 in 10.0 mi Calm Calm - N/A   Clear
8:55 PM 3.2 °F - 1.4 °F 92% 30.36 in 10.0 mi Calm Calm - N/A   Clear
9:15 PM 3.2 °F - 1.4 °F 92% 30.36 in 10.0 mi Calm Calm - N/A   Clear
9:35 PM 1.4 °F - -0.4 °F 92% 30.37 in 10.0 mi Calm Calm - N/A   Clear
9:55 PM 1.4 °F - -0.4 °F 92% 30.37 in 10.0 mi Calm Calm - N/A   Clear
10:15 PM 1.4 °F - -2.2 °F 85% 30.36 in 10.0 mi Calm Calm - N/A   Clear
10:35 PM 1.4 °F - -2.2 °F 85% 30.36 in 10.0 mi Calm Calm - N/A   Clear
10:55 PM 1.4 °F - -4.0 °F 78% 30.35 in 10.0 mi Calm Calm - N/A   Clear
11:15 PM -0.4 °F - -4.0 °F 85% 30.36 in 10.0 mi Calm Calm - N/A   Clear
11:35 PM -0.4 °F - -4.0 °F 85% 30.36 in 10.0 mi Calm Calm - N/A   Clear
11:55 PM -0.4 °F - -4.0 °F 85% 30.36 in 10.0 mi Calm Calm - N/A   Clear